Location: Meriden
(44.0740°N, 93.3870°W)
Time: 10:07:19
(UTC-05:00)

Amateur Radio Satellites - All Passes

Search period start: 30 October 2014 09:37
Search period end: 31 October 2014 09:37
Location: Meriden, 44.0740°N, 93.3870°W

Satellite Date Start Highest point End Downlink Frequencies (MHz)
Time Altitude Azimuth
UKube-1 30 Oct 10:10:18 10:13:42 22° 94° (E) 10:17:05 145.840 MHz, 145.915 MHz
ZACube-1 30 Oct 10:18:54 10:19:41 10° 88° (E) 10:20:28 437.345 MHz
ISS 30 Oct 10:28:16 10:30:41 19° 135° (SE) 10:33:06 145.800 FM
Sapphire 30 Oct 10:39:42 10:43:44 21° 40° (NE) 10:47:45 437.095 MHz 1200 baud AX-25 AFSK
HO-68 30 Oct 10:39:59 10:47:13 86° 288° (WNW) 10:54:24 435.675 MHz FM
Oscar 11 30 Oct 10:45:48 10:50:01 51° 100° (E) 10:54:12 145.825 FM, Beacon 2401.500 USB
SO-50 30 Oct 10:48:19 10:50:15 13° 108° (ESE) 10:52:13 436.795 FM
FUNcube-1 30 Oct 10:59:38 11:03:21 30° 96° (E) 11:07:00 145.950 - 145.970 MHz USB
PCSat 30 Oct 11:01:13 11:05:56 29° 46° (NE) 11:10:37 145.825 MHz
KITSAT 1 30 Oct 11:20:29 11:28:14 54° 114° (ESE) 11:36:01 435.175 FM
UKube-1 30 Oct 11:45:58 11:50:00 37° 291° (WNW) 11:54:00 145.840 MHz, 145.915 MHz
ZACube-1 30 Oct 11:52:23 11:56:36 70° 285° (WNW) 12:00:43 437.345 MHz
ISS 30 Oct 12:03:47 12:07:05 64° 331° (NNW) 12:10:24 145.800 FM
Oscar 19 30 Oct 12:18:11 12:20:32 13° 57° (ENE) 12:22:53 437.125 CW, 437.150 USB
Sapphire 30 Oct 12:22:22 12:27:50 82° 241° (WSW) 12:33:15 437.095 MHz 1200 baud AX-25 AFSK
Oscar 11 30 Oct 12:23:04 12:25:48 17° 297° (WNW) 12:28:32 145.825 FM, Beacon 2401.500 USB
SO-50 30 Oct 12:25:36 12:30:06 79° 306° (NW) 12:34:47 436.795 FM
HO-68 30 Oct 12:29:09 12:33:56 20° 308° (NW) 12:38:44 435.675 MHz FM
FUNcube-1 30 Oct 12:36:11 12:39:38 25° 293° (WNW) 12:43:01 145.950 - 145.970 MHz USB
PCSat 30 Oct 12:44:21 12:49:36 51° 246° (WSW) 12:54:48 145.825 MHz
AO-27 30 Oct 12:52:06 12:53:58 12° 55° (NE) 12:55:51 436.795 MHz FM
Oscar 16 30 Oct 13:02:23 13:06:55 32° 66° (ENE) 13:11:26 437.025 USB, Beacon 2401.1428
UOSAT-12 30 Oct 13:16:02 13:20:15 36° 116° (ESE) 13:24:33 437.025 FM, 437.400 FM
KITSAT 1 30 Oct 13:16:16 13:23:51 43° 315° (NW) 13:31:29 435.175 FM
JAS-1B 30 Oct 13:16:18 13:21:35 40° 66° (ENE) 13:26:53 435.800 - 435.900 CW/SSB
Uribyol 2 30 Oct 13:33:26 13:37:49 28° 64° (ENE) 13:42:12 436.500 FM
ITAMSAT 1 30 Oct 13:40:56 13:45:26 30° 65° (ENE) 13:49:58 435.822 SSB
ISS 30 Oct 13:41:28 13:44:14 24° 351° (N) 13:47:00 145.800 FM
AO-Echo 30 Oct 13:46:15 13:50:54 40° 68° (ENE) 13:55:43 ?
Oscar 19 30 Oct 13:53:58 13:59:07 89° 75° (ENE) 14:04:17 437.125 CW, 437.150 USB
Saudisat 1A 30 Oct 13:57:53 14:01:20 22° 40° (NE) 14:04:46 436.775 MHz
SO-50 30 Oct 14:08:38 14:11:27 16° 327° (NNW) 14:14:20 436.795 FM
Sapphire 30 Oct 14:08:41 14:10:21 11° 258° (WSW) 14:12:00 437.095 MHz 1200 baud AX-25 AFSK
AO-7 30 Oct 14:10:36 14:15:15 17° 44° (NE) 14:19:54 29.400 - 29.500 MHz
AO-27 30 Oct 14:27:23 14:32:36 78° 74° (ENE) 14:37:51 436.795 MHz FM
Gurwin Techsat 1B 30 Oct 14:36:50 14:41:56 50° 70° (ENE) 14:47:05 435.225 FM
Oscar 16 30 Oct 14:41:33 14:46:12 34° 263° (W) 14:50:52 437.025 USB, Beacon 2401.1428
TMSAT-1 30 Oct 14:44:03 14:49:03 44° 69° (ENE) 14:54:04 436.925 FM
UOSAT-12 30 Oct 14:56:10 15:00:25 34° 315° (NW) 15:04:44 437.025 FM, 437.400 FM
JAS-1B 30 Oct 15:07:36 15:12:28 28° 265° (W) 15:17:20 435.800 - 435.900 CW/SSB
Uribyol 2 30 Oct 15:12:10 15:17:05 41° 262° (W) 15:22:03 436.500 FM
KITSAT 1 30 Oct 15:16:40 15:21:46 17° 342° (NNW) 15:26:51 435.175 FM
ISS 30 Oct 15:18:49 15:21:40 25° 12° (NNE) 15:24:30 145.800 FM
ITAMSAT 1 30 Oct 15:20:00 15:24:49 37° 263° (W) 15:29:40 435.822 SSB
AO-Echo 30 Oct 15:25:39 15:29:48 26° 267° (W) 15:34:05 ?
Saudisat 1A 30 Oct 15:36:53 15:41:15 58° 239° (WSW) 15:45:34 436.775 MHz
Oscar 19 30 Oct 15:37:29 15:39:09 11° 272° (W) 15:40:49 437.125 CW, 437.150 USB
Uosat F 30 Oct 15:37:50 15:41:37 22° 62° (ENE) 15:45:26 435.120 FM
AO-7 30 Oct 15:58:20 16:06:27 63° 65° (ENE) 16:14:36 29.400 - 29.500 MHz
AO-27 30 Oct 16:10:02 16:12:42 14° 271° (W) 16:15:23 436.795 MHz FM
Gurwin Techsat 1B 30 Oct 16:18:05 16:22:11 22° 268° (W) 16:26:18 435.225 FM
TMSAT-1 30 Oct 16:24:47 16:29:08 26° 266° (W) 16:33:32 436.925 FM
JAS-2 30 Oct 16:49:24 16:55:03 34° 62° (ENE) 17:01:20 435.800 - 435.900 CW/SSB, 435.910 FM
ISS 30 Oct 16:55:22 16:58:44 80° 31° (NNE) 17:02:04 145.800 FM
Uosat F 30 Oct 17:15:10 17:20:03 51° 260° (W) 17:24:59 435.120 FM
KITSAT 1 30 Oct 17:16:17 17:21:03 16° 14° (NNE) 17:25:49 435.175 FM
Hamsat 30 Oct 17:28:30 17:32:09 30° 69° (ENE) 17:35:49 145.90 MHz
OPAL 30 Oct 17:40:03 17:43:34 19° 94° (E) 17:47:04 ?
AO-7 30 Oct 17:52:37 17:59:42 31° 265° (W) 18:06:51 29.400 - 29.500 MHz
ISS 30 Oct 18:33:04 18:35:02 15° 227° (SW) 18:36:58 145.800 FM
JAS-2 30 Oct 18:33:48 18:39:49 48° 263° (W) 18:46:40 435.800 - 435.900 CW/SSB, 435.910 FM
SO-67 30 Oct 18:57:40 19:00:46 32° 72° (ENE) 19:03:53 435.3500 MHz FM
AO-40 30 Oct 18:58:21 01:19:22 42° 180° (S) 04:02:14 Beacon 2401.320
Hamsat 30 Oct 19:04:41 19:08:07 24° 266° (W) 19:11:33 145.90 MHz
KITSAT 1 30 Oct 19:11:51 19:19:14 37° 42° (NE) 19:26:35 435.175 FM
SO-50 30 Oct 19:15:46 19:19:42 24° 40° (NE) 19:23:40 436.795 FM
OPAL 30 Oct 19:17:57 19:22:47 53° 291° (WNW) 19:27:34 ?
HO-68 30 Oct 19:25:18 19:29:57 19° 52° (NE) 19:34:36 435.675 MHz FM
STRAND 1 30 Oct 19:34:04 19:38:47 35° 97° (E) 19:43:27 ?
UOSAT-12 30 Oct 20:05:27 20:07:13 12° 28° (NNE) 20:09:00 437.025 FM, 437.400 FM
SO-67 30 Oct 20:31:49 20:33:51 15° 268° (W) 20:35:53 435.3500 MHz FM
Oscar 10/S400 30 Oct 20:35:08 21:08:58 49° 197° (SSW) 04:53:52 145.825 - 145.975 CW/USB, Beacon 145.810 USB
SO-50 30 Oct 20:55:51 21:00:38 60° 239° (WSW) 21:05:26 436.795 FM
KITSAT 1 30 Oct 21:07:10 21:15:09 65° 244° (WSW) 21:23:04 435.175 FM
UKube-1 30 Oct 21:07:13 21:10:43 24° 65° (ENE) 21:14:13 145.840 MHz, 145.915 MHz
HO-68 30 Oct 21:09:27 21:16:37 83° 72° (ENE) 21:23:51 435.675 MHz FM
STRAND 1 30 Oct 21:13:23 21:17:53 31° 294° (WNW) 21:22:21 ?
ZACube-1 30 Oct 21:16:21 21:18:24 13° 61° (ENE) 21:20:26 437.345 MHz
RS-15 30 Oct 21:25:06 21:35:39 56° 114° (ESE) 21:46:08 29.354 - 29.394 USB, Beacon 29.352 USB
Oscar 11 30 Oct 21:42:06 21:46:14 48° 72° (ENE) 21:50:24 145.825 FM, Beacon 2401.500 USB
UOSAT-12 30 Oct 21:43:56 21:48:32 48° 49° (NE) 21:53:03 437.025 FM, 437.400 FM
FUNcube-1 30 Oct 21:57:08 22:01:07 32° 69° (ENE) 22:05:03 145.950 - 145.970 MHz USB
UKube-1 30 Oct 22:42:45 22:46:44 34° 262° (W) 22:50:44 145.840 MHz, 145.915 MHz
ZACube-1 30 Oct 22:49:41 22:54:14 75° 258° (WSW) 22:58:42 437.345 MHz
HO-68 30 Oct 23:00:17 23:05:08 19° 270° (W) 23:10:02 435.675 MHz FM
MaSat-1 30 Oct 23:04:26 23:08:20 79° 297° (WNW) 23:11:49 437.345 MHz
KITSAT 1 30 Oct 23:06:17 23:08:57 12° 263° (W) 23:11:36 435.175 FM
Oscar 11 30 Oct 23:19:57 23:22:41 16° 269° (W) 23:25:26 145.825 FM, Beacon 2401.500 USB
UOSAT-12 30 Oct 23:24:41 23:28:23 23° 248° (WSW) 23:32:02 437.025 FM, 437.400 FM
FUNcube-1 30 Oct 23:33:38 23:37:29 27° 265° (W) 23:41:17 145.950 - 145.970 MHz USB
RS-15 30 Oct 23:37:37 23:48:10 51° 318° (NW) 23:58:49 29.354 - 29.394 USB, Beacon 29.352 USB
JAS-1B 31 Oct 00:59:43 01:01:44 11° 87° (E) 01:03:48 435.800 - 435.900 CW/SSB
PCSat 31 Oct 01:46:24 01:49:42 17° 104° (ESE) 01:53:02 145.825 MHz
AO-Echo 31 Oct 01:53:51 01:56:00 12° 87° (E) 01:58:09 ?
RS-15 31 Oct 01:55:13 02:03:56 26° 351° (N) 02:12:49 29.354 - 29.394 USB, Beacon 29.352 USB
Oscar 19 31 Oct 02:04:33 02:08:55 28° 95° (E) 02:13:16 437.125 CW, 437.150 USB
AO-27 31 Oct 02:39:36 02:43:51 25° 94° (E) 02:48:04 436.795 MHz FM
JAS-1B 31 Oct 02:46:12 02:53:13 65° 103° (ESE) 03:01:37 435.800 - 435.900 CW/SSB
Oscar 16 31 Oct 02:51:02 02:56:11 76° 103° (ESE) 03:01:17 437.025 USB, Beacon 2401.1428
Gurwin Techsat 1B 31 Oct 02:52:33 02:56:06 18° 91° (E) 02:59:37 435.225 FM
TMSAT-1 31 Oct 02:59:40 03:02:42 15° 89° (E) 03:05:44 436.925 FM
Sapphire 31 Oct 03:05:21 03:10:43 71° 118° (ESE) 03:16:08 437.095 MHz 1200 baud AX-25 AFSK
Uribyol 2 31 Oct 03:23:02 03:28:13 63° 102° (ESE) 03:33:21 436.500 FM
PCSat 31 Oct 03:27:04 03:32:28 75° 302° (WNW) 03:37:55 145.825 MHz
AO-Echo 31 Oct 03:30:06 03:35:28 88° 285° (WNW) 03:40:45 ?
ITAMSAT 1 31 Oct 03:30:50 03:36:05 70° 103° (ESE) 03:41:15 435.822 SSB
Oscar 19 31 Oct 03:43:37 03:48:20 38° 292° (WNW) 03:53:03 437.125 CW, 437.150 USB
AO-7 31 Oct 03:59:57 04:05:00 17° 88° (E) 04:10:01 29.400 - 29.500 MHz
RS-15 31 Oct 04:11:12 04:20:51 33° 26° (NNE) 04:30:46 29.354 - 29.394 USB, Beacon 29.352 USB
AO-27 31 Oct 04:18:35 04:23:33 45° 291° (WNW) 04:28:29 436.795 MHz FM
Gurwin Techsat 1B 31 Oct 04:31:14 04:36:30 63° 288° (WNW) 04:41:44 435.225 FM
Oscar 16 31 Oct 04:31:54 04:34:55 16° 301° (WNW) 04:37:55 437.025 USB, Beacon 2401.1428
JAS-1B 31 Oct 04:37:45 04:43:29 29° 298° (WNW) 04:50:04 435.800 - 435.900 CW/SSB
TMSAT-1 31 Oct 04:37:52 04:43:11 73° 287° (WNW) 04:48:27 436.925 FM
Sapphire 31 Oct 04:50:26 04:54:40 23° 318° (NW) 04:58:56 437.095 MHz 1200 baud AX-25 AFSK
OPAL 31 Oct 04:55:50 05:00:38 43° 67° (ENE) 05:05:23 ?
Uribyol 2 31 Oct 05:03:37 05:07:12 19° 300° (WNW) 05:10:45 436.500 FM
AO-Echo 31 Oct 05:10:46 05:13:26 14° 303° (WNW) 05:16:05 ?
ITAMSAT 1 31 Oct 05:11:38 05:15:00 18° 301° (WNW) 05:18:21 435.822 SSB
PCSat 31 Oct 05:13:28 05:16:51 16° 324° (NW) 05:20:14 145.825 MHz
Uosat F 31 Oct 05:21:18 05:26:07 43° 99° (E) 05:30:54 435.120 FM
JAS-2 31 Oct 05:41:13 05:47:58 30° 91° (E) 05:54:31 435.800 - 435.900 CW/SSB, 435.910 FM
Saudisat 1A 31 Oct 05:45:06 05:48:40 25° 114° (ESE) 05:52:15 436.775 MHz
AO-7 31 Oct 05:50:36 05:58:59 82° 108° (ESE) 06:07:21 29.400 - 29.500 MHz
TMSAT-1 31 Oct 06:20:35 06:22:09 11° 305° (NW) 06:23:43 436.925 FM
RS-15 31 Oct 06:24:00 06:35:13 80° 54° (NE) 06:46:53 29.354 - 29.394 USB, Beacon 29.352 USB
OPAL 31 Oct 06:35:28 06:39:39 25° 263° (W) 06:43:49 ?
Hamsat 31 Oct 06:47:45 06:51:52 50° 99° (E) 06:55:59 145.90 MHz
STRAND 1 31 Oct 06:51:17 06:56:19 59° 71° (ENE) 07:01:24 ?
Uosat F 31 Oct 07:00:35 07:04:40 25° 296° (WNW) 07:08:44 435.120 FM
MaSat-1 31 Oct 07:13:17 07:14:45 14° 51° (NE) 07:16:09 437.345 MHz
Saudisat 1A 31 Oct 07:23:53 07:28:02 41° 312° (NW) 07:32:13 436.775 MHz
JAS-2 31 Oct 07:25:38 07:33:23 64° 290° (WNW) 07:40:56 435.800 - 435.900 CW/SSB, 435.910 FM
AO-7 31 Oct 07:44:25 07:50:55 27° 308° (NW) 07:57:26 29.400 - 29.500 MHz
SO-67 31 Oct 07:52:02 07:55:09 31° 97° (E) 07:58:15 435.3500 MHz FM
Hamsat 31 Oct 08:24:47 08:27:26 16° 296° (WNW) 08:30:05 145.90 MHz
STRAND 1 31 Oct 08:32:26 08:35:54 18° 269° (W) 08:39:24 ?
RS-15 31 Oct 08:37:20 08:46:31 31° 256° (WSW) 08:56:01 29.354 - 29.394 USB, Beacon 29.352 USB
HO-68 31 Oct 08:38:13 08:41:28 13° 86° (E) 08:44:42 435.675 MHz FM
MaSat-1 31 Oct 08:48:22 08:50:04 17° 252° (WSW) 08:51:42 437.345 MHz
JAS-2 31 Oct 09:12:41 09:16:55 16° 310° (NW) 09:21:09 435.800 - 435.900 CW/SSB, 435.910 FM
SO-67 31 Oct 09:25:39 09:27:53 16° 293° (WNW) 09:30:06 435.3500 MHz FM
